Showing default

TIANLIAN 2-01, 44076

Orbit data source: Space-Track

TIANLIAN 2-01, 44076 is a payload satellite owned by CAST (CN) in GEO that was launched on Sun, 31 Mar 2019 UTC via a CHANG ZHENG 3B launch vehicle from the Xichang Space Center, China (XSC). Payload-class satellites include a variety of spacecraft equipped with specific instruments for various scientific and technological missions. These include communications satellites like Starlink; space stations such as the ISS; scientific satellites like the Hubble; Earth observation satellites from companies like Planet Labs, Umbra, and HawkEye 360; GPS; miniature CubeSats for education and research; and military/defense satellites.

Not visible in the next 10 days
Identifier
44076, 2019-017A
Orbit
GEO
Country
Flag of CNCN / PRC
Related business
Manufacturer
CAST
Mission
Operational Civil Communications
Bus & Motor
DFH-4?, FY-25
Mass
~5,000 kg wet, ~2,000 kg dry
Launch date (UTC)
2019-03-31 (7 years ago)
Launch vehicle
CHANG ZHENG 3B
Launch site
Xichang Space Center, China (XSC)
Object type
Payload
Rocket body
Debris
Shape & HBR
Box + 2 Pan + 1 Dish, 10.0 m
Radar Cross Section
40.604 m², Large (>1 m²)

Expand to show TLE details & history
Last TLE update: 2 days ago

TLE from 2 days ago
0 TIANLIAN 2-01
1 44076U 19017A   26171.40727872 -.00000111  00000-0  00000+0 0  9996
2 44076   0.5494  83.1269 0000872  32.2467  16.8699  1.00271234 26686
Epoch: 2026-06-20T09:46Z
TLE epoch observation values (Epoch: 2026-06-20T09:46:28.881Z)
Latitude
0.43047°
Longitude
77.01523°
Altitude
35,782.661 km
Speed
3.075 km/s
True Right ascension
08h 49m 01s
True Declination
0° 25' 48"
Sunlit
Object was in daylight at epoch
Visualization orbit readout
Latitude
Unknown
Longitude
Unknown
Altitude
Unknown
Speed
Unknown
Apparent Right ascension
Unknown
Apparent Declination
Unknown
Sunlit
N/A
Visualization observer readout
Local Sidereal Time
21:37:17
Azimuth
Unknown
Elevation
Unknown
Doppler factor
Unknown
Orbital elements
Apogee altitude
35,791.497 km
Perigee altitude
35,784.143 km
Semi-major axis
42,165.957 km
Eccentricity
0.00009
Inclination
0.5494°
RAAN
83.1269°
Arg. of periapsis
32.2467°
True anomaly
16.8728°
Mean anomaly
16.8699°
Eccentric anomaly
16.87135°
Mean motion
0.25067 °/min
Orbital period
1,436.16 mins
BSTAR
0
Loading maneuver chart data...
Computing Atmospheric mass density...
Loading historical data...
Loading historical data...
Loading historical data...
Loading historical data...
Loading historical data...
Loading historical data...
Loading historical data...
Other satellites on launch #17 in the year 2019 (2019-03-31 UTC)

Documentation

Showing up to 5 results
|